Langdon, ND

1:00 AM CDT on August 21, 2017 (GMT -0500)
Langdon

Weather History for KD55 - January, 2014

Change the Weather History Date:

Saturday, January 11, 2014

  Actual Average (KDVL) Record (KDVL)
Temperature  
Mean Temperature 18 °F -  
Max Temperature 26 °F 12 °F 53 °F (1990)
Min Temperature 10 °F -7 °F -30 °F (1974)
Degree Days  
Heating Degree Days 47    
Moisture  
Dew Point 15 °F    
Average Humidity 86    
Maximum Humidity 100    
Minimum Humidity 74    
Precipitation  
Precipitation 0.00 in - - ()
Sea Level Pressure  
Sea Level Pressure 29.47 in    
Wind  
Wind Speed 12 mph (WSW)    
Max Wind Speed 25 mph    
Max Gust Speed 25 mph    
Visibility 9 miles    
Events      
Averages and records for this station are not official NWS values.
T = Trace of Precipitation, MM = Missing Value Source: NWS Daily Summary

Daily Weather History Graph

Daily Weather History Graph

Search for Another Location

Airport or City:

Trip Planner

Search our weather history database for the weather conditions in past years. The results will help you decide how hot, cold, wet, or windy it might be!

Date:

Astronomy

Jan. 11, 2014 Rise Set
Actual Time 8:23 AM CST 4:59 PM CST
Civil Twilight 7:47 AM CST 5:35 PM CST
Nautical Twilight 7:08 AM CST 6:15 PM CST
Astronomical Twilight 6:30 AM CST 6:53 PM CST
Moon 1:48 PM CST (1/11) 4:25 AM CST (1/11)
Length of Visible Light 9h 48m
Length of Day
8h 36m
Waxing Gibbous, 83% of the Moon is Illuminated
Jan 11
Waxing Gibbous
Jan 15
Full
Jan 23
Last Quarter
Jan 30
New
Feb 6
First Quarter

Hourly Weather History & Observations

Time (CST) Temp. Windchill Dew Point Humidity Pressure Visibility Wind Dir Wind Speed Gust Speed Precip Events Conditions
12:15 AM 19.4 °F 6.0 °F 15.8 °F 86% 29.47 in 10.0 mi WNW 13.8 mph - N/A   Overcast
12:35 AM 19.4 °F 5.0 °F 15.8 °F 86% 29.47 in 9.0 mi WNW 16.1 mph - N/A   Overcast
12:55 AM 19.4 °F 5.5 °F 17.6 °F 93% 29.48 in 8.0 mi WNW 15.0 mph 20.7 mph N/A   Overcast
1:15 AM 19.4 °F 4.5 °F 17.6 °F 93% 29.48 in 7.0 mi NW 17.3 mph - N/A   Overcast
1:35 AM 21.2 °F 7.8 °F 19.4 °F 93% 29.48 in 6.0 mi NW 15.0 mph - N/A   Overcast
1:55 AM 21.2 °F 7.8 °F 19.4 °F 93% 29.49 in 5.0 mi NW 15.0 mph 23.0 mph N/A   Overcast
2:15 AM 21.2 °F 6.8 °F 19.4 °F 93% 29.49 in 4.0 mi NW 17.3 mph - N/A   Overcast
2:35 AM 21.2 °F 6.4 °F 19.4 °F 93% 29.50 in 3.0 mi NW 18.4 mph - N/A   Overcast
2:55 AM 21.2 °F 6.4 °F 19.4 °F 93% 29.51 in 5.0 mi NW 18.4 mph 25.3 mph N/A   Overcast
3:15 AM 19.4 °F 5.5 °F 19.4 °F 100% 29.51 in 5.0 mi NW 15.0 mph - N/A   Overcast
3:35 AM 19.4 °F 7.9 °F 17.6 °F 93% 29.52 in 5.0 mi NW 10.4 mph - N/A   Overcast
3:55 AM 19.4 °F 8.6 °F 17.6 °F 93% 29.52 in 5.0 mi WNW 9.2 mph - N/A   Overcast
4:15 AM 17.6 °F 5.7 °F 15.8 °F 93% 29.53 in 8.0 mi West 10.4 mph - N/A   Scattered Clouds
4:35 AM 15.8 °F 3.4 °F 14.0 °F 93% 29.53 in 8.0 mi West 10.4 mph - N/A   Clear
4:55 AM 15.8 °F 4.2 °F 14.0 °F 93% 29.53 in 10.0 mi West 9.2 mph - N/A   Clear
5:15 AM 14.0 °F 3.9 °F 10.4 °F 86% 29.53 in 10.0 mi WNW 6.9 mph - N/A   Clear
5:35 AM 14.0 °F 2.9 °F 10.4 °F 86% 29.52 in 10.0 mi West 8.1 mph - N/A   Clear
5:55 AM 10.4 °F -2.4 °F 8.6 °F 92% 29.53 in 10.0 mi West 9.2 mph - N/A   Clear
6:15 AM 10.4 °F -1.5 °F 8.6 °F 92% 29.53 in 10.0 mi WNW 8.1 mph - N/A   Clear
6:35 AM 10.4 °F 0.8 °F 8.6 °F 92% 29.54 in 10.0 mi WSW 5.8 mph - N/A   Mostly Cloudy
6:55 AM 10.4 °F 2.2 °F 8.6 °F 92% 29.54 in 10.0 mi West 4.6 mph - N/A   Overcast
7:15 AM 14.0 °F 6.5 °F 10.4 °F 86% 29.54 in 10.0 mi WSW 4.6 mph - N/A   Overcast
7:35 AM 15.8 °F 6.1 °F 12.2 °F 86% 29.53 in 10.0 mi West 6.9 mph - N/A   Overcast
7:55 AM 15.8 °F 6.1 °F 12.2 °F 86% 29.52 in 10.0 mi SW 6.9 mph - N/A   Overcast
8:15 AM 14.0 °F 5.1 °F 10.4 °F 86% 29.53 in 10.0 mi SW 5.8 mph - N/A   Mostly Cloudy
8:35 AM 14.0 °F 5.1 °F 10.4 °F 86% 29.54 in 10.0 mi South 5.8 mph - N/A   Scattered Clouds
8:55 AM 14.0 °F 6.5 °F 10.4 °F 86% 29.54 in 10.0 mi South 4.6 mph - N/A   Partly Cloudy
9:15 AM 14.0 °F 2.0 °F 10.4 °F 86% 29.55 in 10.0 mi SW 9.2 mph - N/A   Clear
9:35 AM 14.0 °F 3.9 °F 10.4 °F 86% 29.56 in 10.0 mi West 6.9 mph - N/A   Clear
9:55 AM 15.8 °F 8.6 °F 10.4 °F 79% 29.56 in 10.0 mi WNW 4.6 mph - N/A   Clear
10:15 AM 17.6 °F 10.7 °F 14.0 °F 86% 29.57 in 10.0 mi West 4.6 mph - N/A   Clear
10:35 AM 19.4 °F 7.9 °F 14.0 °F 80% 29.57 in 10.0 mi NW 10.4 mph - N/A   Clear
10:55 AM 19.4 °F 8.6 °F 15.8 °F 86% 29.57 in 10.0 mi WNW 9.2 mph - N/A   Clear
11:15 AM 19.4 °F 10.4 °F 15.8 °F 86% 29.57 in 9.0 mi West 6.9 mph - N/A   Mostly Cloudy
11:35 AM 19.4 °F 6.0 °F 15.8 °F 86% 29.56 in 8.0 mi West 13.8 mph - N/A   Overcast
11:55 AM 19.4 °F 6.0 °F 15.8 °F 86% 29.55 in 7.0 mi West 13.8 mph - N/A   Overcast
12:15 PM 21.2 °F 8.9 °F 15.8 °F 80% 29.54 in 7.0 mi West 12.7 mph - N/A   Partly Cloudy
12:35 PM 21.2 °F 9.5 °F 15.8 °F 80% 29.53 in 7.0 mi West 11.5 mph - N/A   Scattered Clouds
12:55 PM 23.0 °F 13.1 °F 15.8 °F 74% 29.52 in 8.0 mi West 9.2 mph - N/A   Mostly Cloudy
1:15 PM 23.0 °F 11.7 °F 17.6 °F 80% 29.52 in 9.0 mi West 11.5 mph - N/A   Partly Cloudy
1:35 PM 23.0 °F 12.4 °F 17.6 °F 80% 29.51 in 9.0 mi West 10.4 mph - N/A   Clear
1:55 PM 23.0 °F 11.1 °F 17.6 °F 80% 29.51 in 10.0 mi West 12.7 mph - N/A   Clear
2:15 PM 23.0 °F 13.1 °F 17.6 °F 80% 29.51 in 9.0 mi WSW 9.2 mph - N/A   Clear
2:35 PM 23.0 °F 13.1 °F 15.8 °F 74% 29.50 in 10.0 mi West 9.2 mph - N/A   Clear
2:55 PM 23.0 °F 13.9 °F 15.8 °F 74% 29.50 in 10.0 mi WSW 8.1 mph - N/A   Clear
3:15 PM 21.2 °F 12.6 °F 15.8 °F 80% 29.50 in 10.0 mi WSW 6.9 mph - N/A   Clear
3:35 PM 19.4 °F 8.6 °F 15.8 °F 86% 29.49 in 10.0 mi WSW 9.2 mph - N/A   Clear
3:55 PM 17.6 °F 5.7 °F 14.0 °F 86% 29.50 in 10.0 mi WSW 10.4 mph - N/A   Clear
4:15 PM 15.8 °F 7.2 °F 14.0 °F 93% 29.49 in 10.0 mi SSW 5.8 mph - N/A   Clear
4:35 PM 15.8 °F 7.2 °F 12.2 °F 86% 29.47 in 10.0 mi SW 5.8 mph - N/A   Clear
4:55 PM 14.0 °F 2.0 °F 10.4 °F 86% 29.47 in 10.0 mi SSW 9.2 mph - N/A   Clear
5:15 PM 12.2 °F -1.0 °F 10.4 °F 92% 29.48 in 10.0 mi SSW 10.4 mph - N/A   Clear
5:35 PM 14.0 °F 3.9 °F 10.4 °F 86% 29.47 in 10.0 mi SSW 6.9 mph - N/A   Scattered Clouds
5:55 PM 15.8 °F 4.2 °F 12.2 °F 86% 29.47 in 10.0 mi SSW 9.2 mph - N/A   Clear
6:15 PM 15.8 °F 5.1 °F 14.0 °F 93% 29.46 in 10.0 mi SSW 8.1 mph - N/A   Partly Cloudy
6:35 PM 17.6 °F 7.3 °F 14.0 °F 86% 29.44 in 10.0 mi South 8.1 mph - N/A   Scattered Clouds
6:55 PM 17.6 °F 6.4 °F 14.0 °F 86% 29.43 in 10.0 mi South 9.2 mph - N/A   Scattered Clouds
7:15 PM 17.6 °F 5.0 °F 15.8 °F 93% 29.42 in 10.0 mi South 11.5 mph - N/A   Mostly Cloudy
7:35 PM 19.4 °F 6.6 °F 15.8 °F 86% 29.39 in 10.0 mi South 12.7 mph - N/A   Partly Cloudy
7:55 PM 19.4 °F 6.0 °F 17.6 °F 93% 29.38 in 10.0 mi South 13.8 mph - N/A   Clear
8:15 PM 21.2 °F 8.3 °F 17.6 °F 86% 29.35 in 10.0 mi SSE 13.8 mph - N/A   Partly Cloudy
8:35 PM 23.0 °F 11.7 °F 17.6 °F 80% 29.34 in 10.0 mi South 11.5 mph - N/A   Scattered Clouds
8:55 PM 23.0 °F 10.1 °F 19.4 °F 86% 29.34 in 10.0 mi South 15.0 mph - N/A   Mostly Cloudy
9:15 PM 24.8 °F 12.9 °F 19.4 °F 80% 29.31 in 10.0 mi SSE 13.8 mph - N/A   Scattered Clouds
9:35 PM 24.8 °F 12.4 °F 19.4 °F 80% 29.31 in 10.0 mi South 15.0 mph - N/A   Partly Cloudy
9:55 PM 24.8 °F 11.9 °F 19.4 °F 80% 29.30 in 10.0 mi South 16.1 mph - N/A   Partly Cloudy
10:15 PM 24.8 °F 11.5 °F 19.4 °F 80% 29.30 in 10.0 mi South 17.3 mph - N/A   Scattered Clouds
10:35 PM 26.6 °F 13.8 °F 21.2 °F 80% 29.27 in 10.0 mi SSE 17.3 mph - N/A   Mostly Cloudy
10:55 PM 26.6 °F 13.8 °F 21.2 °F 80% 29.26 in 10.0 mi SSE 17.3 mph - N/A   Mostly Cloudy
11:15 PM 26.6 °F 12.4 °F 23.0 °F 86% 29.24 in 10.0 mi South 21.9 mph - N/A   Mostly Cloudy
11:35 PM 26.6 °F 11.7 °F 23.0 °F 86% 29.22 in 10.0 mi South 24.2 mph - N/A   Partly Cloudy
11:55 PM 26.6 °F 11.4 °F 23.0 °F 86% 29.20 in 10.0 mi South 25.3 mph - N/A   Clear